TimeCDT,TemperatureF,Dew PointF,Humidity,Sea Level PressureIn,VisibilityMPH,Wind Direction,Wind SpeedMPH,Gust SpeedMPH,PrecipitationIn,Events,Conditions,WindDirDegrees,DateUTC
12:53 AM,64.0,62.1,93,30.04,10.0,Calm,Calm,-,N/A,,Clear,0,2013-07-03 05:53:00
1:53 AM,63.0,61.0,93,30.04,10.0,Calm,Calm,-,N/A,,Clear,0,2013-07-03 06:53:00
2:53 AM,63.0,61.0,93,30.03,9.0,Calm,Calm,-,N/A,,Clear,0,2013-07-03 07:53:00
3:53 AM,62.1,60.1,93,30.03,8.0,Calm,Calm,-,N/A,,Clear,0,2013-07-03 08:53:00
4:53 AM,62.1,60.1,93,30.03,9.0,Calm,Calm,-,N/A,,Clear,0,2013-07-03 09:53:00
5:53 AM,62.1,60.1,93,30.04,8.0,Calm,Calm,-,N/A,,Clear,0,2013-07-03 10:53:00
6:53 AM,63.0,61.0,93,30.06,6.0,Calm,Calm,-,N/A,,Clear,0,2013-07-03 11:53:00
7:53 AM,66.0,63.0,90,30.07,7.0,ENE,4.6,-,N/A,,Clear,60,2013-07-03 12:53:00
8:53 AM,72.0,63.0,73,30.09,8.0,NE,6.9,-,N/A,,Clear,40,2013-07-03 13:53:00
9:53 AM,75.9,64.0,67,30.09,9.0,East,4.6,-,N/A,,Clear,90,2013-07-03 14:53:00
10:53 AM,80.1,63.0,56,30.09,10.0,East,4.6,-,N/A,,Clear,90,2013-07-03 15:53:00
11:53 AM,82.9,63.0,51,30.08,10.0,Calm,Calm,-,N/A,,Clear,0,2013-07-03 16:53:00
12:53 PM,82.9,60.1,46,30.06,10.0,Variable,4.6,-,N/A,,Clear,0,2013-07-03 17:53:00
1:53 PM,87.1,55.0,33,30.04,10.0,Variable,3.5,-,N/A,,Clear,0,2013-07-03 18:53:00
2:53 PM,86.0,55.0,35,30.03,10.0,East,4.6,-,N/A,,Mostly Cloudy,80,2013-07-03 19:53:00
3:53 PM,87.1,55.0,33,30.01,10.0,NE,6.9,-,N/A,,Partly Cloudy,50,2013-07-03 20:53:00
4:53 PM,86.0,55.0,35,30.01,10.0,East,5.8,-,N/A,,Clear,80,2013-07-03 21:53:00
5:53 PM,84.0,55.9,38,30.00,10.0,ENE,10.4,-,N/A,,Mostly Cloudy,70,2013-07-03 22:53:00
6:53 PM,82.0,60.1,47,29.99,9.0,East,6.9,-,N/A,,Clear,80,2013-07-03 23:53:00
7:53 PM,79.0,60.1,52,29.99,9.0,ENE,4.6,-,N/A,,Clear,70,2013-07-04 00:53:00
8:53 PM,71.1,63.0,75,30.00,10.0,Calm,Calm,-,N/A,,Clear,0,2013-07-04 01:53:00
9:53 PM,70.0,62.1,76,30.01,10.0,Calm,Calm,-,N/A,,Clear,0,2013-07-04 02:53:00
10:53 PM,68.0,62.1,81,30.04,9.0,Calm,Calm,-,N/A,,Clear,0,2013-07-04 03:53:00
11:53 PM,64.9,61.0,87,30.03,9.0,Calm,Calm,-,N/A,,Clear,0,2013-07-04 04:53:00